Fairmont, MN

7:28 AM CST on February 24, 2017 (GMT -0600)
Fairmont Municipal

Weather History for KFRM - September, 2013

Change the Weather History Date:

Friday, September 27, 2013

  Actual Average Record
Temperature  
Mean Temperature 76 °F -  
Max Temperature 87 °F 68 °F 92 °F (1956)
Min Temperature 66 °F 45 °F 34 °F (1984)
Cooling Degree Days 12    
Growing Degree Days 26 (Base 50)    
Moisture  
Dew Point 57 °F    
Average Humidity 57    
Maximum Humidity 73    
Minimum Humidity 33    
Precipitation  
Precipitation 0.00 in - - ()
Sea Level Pressure  
Sea Level Pressure 29.85 in    
Wind  
Wind Speed 18 mph (SSE)    
Max Wind Speed 30 mph    
Max Gust Speed 38 mph    
Visibility 10 miles    
Events      
Averages and records for this station are not official NWS values.
T = Trace of Precipitation, MM = Missing Value Source: NWS Daily Summary

Daily Weather History Graph

Daily Weather History Graph

Search for Another Location

Airport or City:

Trip Planner

Search our weather history database for the weather conditions in past years. The results will help you decide how hot, cold, wet, or windy it might be!

Date:

Astronomy

Sep. 27, 2013 Rise Set
Actual Time 7:10 AM CDT 7:05 PM CDT
Civil Twilight 6:42 AM CDT 7:33 PM CDT
Nautical Twilight 6:08 AM CDT 8:07 PM CDT
Astronomical Twilight 5:34 AM CDT 8:41 PM CDT
Moon No Moon Rise 2:54 PM CDT (9/27)
Length of Visible Light 12h 51m
Length of Day
11h 54m
Last Quarter, 45% of the Moon is Illuminated
Sep 27
Last Quarter
Oct 4
New
Oct 11
First Quarter
Oct 18
Full
Oct 26
Last Quarter

Hourly Weather History & Observations

Time (CDT) Temp. Heat Index Dew Point Humidity Pressure Visibility Wind Dir Wind Speed Gust Speed Precip Events Conditions
12:15 AM 69.8 °F - 57.2 °F 64% 29.89 in 10.0 mi SSE 16.1 mph - N/A   Clear
12:35 AM 69.8 °F - 57.2 °F 64% 29.89 in 10.0 mi SSE 15.0 mph - N/A   Clear
12:55 AM 69.8 °F - 57.2 °F 64% 29.89 in 10.0 mi SSE 16.1 mph - N/A   Clear
1:15 AM 69.8 °F - 57.2 °F 64% 29.89 in 10.0 mi SSE 17.3 mph - N/A   Clear
1:35 AM 69.8 °F - 57.2 °F 64% 29.89 in 10.0 mi SSE 15.0 mph - N/A   Clear
1:55 AM 68.0 °F - 57.2 °F 68% 29.90 in 10.0 mi SSE 15.0 mph - N/A   Clear
2:15 AM 68.0 °F - 57.2 °F 68% 29.90 in 10.0 mi SSE 13.8 mph - N/A   Clear
2:35 AM 66.2 °F - 57.2 °F 73% 29.89 in 10.0 mi SSE 13.8 mph 19.6 mph N/A   Clear
2:55 AM 66.2 °F - 57.2 °F 73% 29.89 in 10.0 mi SSE 12.7 mph - N/A   Clear
3:15 AM 66.2 °F - 57.2 °F 73% 29.88 in 10.0 mi SSE 17.3 mph - N/A   Clear
3:35 AM 68.0 °F - 57.2 °F 68% 29.88 in 10.0 mi SSE 16.1 mph 21.9 mph N/A   Clear
3:55 AM 68.0 °F - 59.0 °F 73% 29.87 in 10.0 mi SSE 16.1 mph - N/A   Clear
4:15 AM 68.0 °F - 59.0 °F 73% 29.88 in 10.0 mi SSE 16.1 mph - N/A   Clear
4:35 AM 68.0 °F - 57.2 °F 68% 29.86 in 10.0 mi SSE 19.6 mph - N/A   Clear
4:55 AM 68.0 °F - 57.2 °F 68% 29.87 in 10.0 mi SSE 19.6 mph 25.3 mph N/A   Clear
5:15 AM 68.0 °F - 57.2 °F 68% 29.88 in 10.0 mi SSE 16.1 mph 25.3 mph N/A   Partly Cloudy
5:35 AM 68.0 °F - 57.2 °F 68% 29.88 in 10.0 mi SSE 17.3 mph 24.2 mph N/A   Partly Cloudy
5:55 AM 68.0 °F - 57.2 °F 68% 29.87 in 10.0 mi SSE 19.6 mph 25.3 mph N/A   Partly Cloudy
6:15 AM 68.0 °F - 59.0 °F 73% 29.87 in 10.0 mi SSE 20.7 mph 24.2 mph N/A   Clear
6:35 AM 69.8 °F - 59.0 °F 68% 29.87 in 10.0 mi SSE 20.7 mph 26.5 mph N/A   Clear
6:55 AM 69.8 °F - 57.2 °F 64% 29.86 in 10.0 mi SSE 17.3 mph - N/A   Clear
7:15 AM 69.8 °F - 57.2 °F 64% 29.89 in 10.0 mi South 15.0 mph 25.3 mph N/A   Scattered Clouds
7:35 AM 69.8 °F - 57.2 °F 64% 29.90 in 10.0 mi SSE 15.0 mph 23.0 mph N/A   Mostly Cloudy
7:55 AM 68.0 °F - 59.0 °F 73% 29.90 in 10.0 mi SSE 18.4 mph 23.0 mph N/A   Mostly Cloudy
8:15 AM 68.0 °F - 59.0 °F 73% 29.89 in 10.0 mi SSE 17.3 mph - N/A   Mostly Cloudy
8:35 AM 69.8 °F - 59.0 °F 68% 29.88 in 10.0 mi SSE 17.3 mph 24.2 mph N/A   Partly Cloudy
8:55 AM 69.8 °F - 59.0 °F 68% 29.87 in 10.0 mi SSE 20.7 mph 25.3 mph N/A   Clear
9:15 AM 71.6 °F - 57.2 °F 60% 29.87 in 10.0 mi SSE 21.9 mph 26.5 mph N/A   Mostly Cloudy
9:35 AM 69.8 °F - 59.0 °F 68% 29.87 in 10.0 mi SSE 19.6 mph 27.6 mph N/A   Overcast
9:55 AM 69.8 °F - 60.8 °F 73% 29.87 in 10.0 mi South 16.1 mph 23.0 mph N/A   Overcast
10:15 AM 69.8 °F - 60.8 °F 73% 29.88 in 10.0 mi South 20.7 mph 26.5 mph N/A   Mostly Cloudy
10:35 AM 71.6 °F - 59.0 °F 64% 29.87 in 10.0 mi SSE 23.0 mph 29.9 mph N/A   Mostly Cloudy
10:55 AM 71.6 °F - 59.0 °F 64% 29.87 in 10.0 mi SSE 19.6 mph 25.3 mph N/A   Mostly Cloudy
11:15 AM 71.6 °F - 59.0 °F 64% 29.85 in 10.0 mi SE 20.7 mph 26.5 mph N/A   Overcast
11:35 AM 71.6 °F - 59.0 °F 64% 29.84 in 10.0 mi SSE 16.1 mph - N/A   Scattered Clouds
11:55 AM 73.4 °F - 59.0 °F 61% 29.85 in 10.0 mi SSE 16.1 mph 21.9 mph N/A   Clear
12:15 PM 75.2 °F - 59.0 °F 57% 29.85 in 10.0 mi SSE 20.7 mph 27.6 mph N/A   Clear
12:35 PM 78.8 °F - 59.0 °F 51% 29.85 in 10.0 mi SSE 26.5 mph 33.4 mph N/A   Clear
12:55 PM 80.6 °F 81.1 °F 59.0 °F 48% 29.84 in 10.0 mi South 25.3 mph 31.1 mph N/A   Clear
1:15 PM 82.4 °F 82.0 °F 57.2 °F 42% 29.84 in 10.0 mi South 24.2 mph 29.9 mph N/A   Clear
1:35 PM 84.2 °F 83.5 °F 57.2 °F 40% 29.82 in 10.0 mi SSE 29.9 mph 35.7 mph N/A   Clear
1:55 PM 84.2 °F 83.0 °F 55.4 °F 37% 29.81 in 10.0 mi South 29.9 mph 36.8 mph N/A   Clear
2:15 PM 86.0 °F 84.5 °F 55.4 °F 35% 29.80 in 10.0 mi South 27.6 mph 35.7 mph N/A   Clear
2:35 PM 87.8 °F 86.1 °F 55.4 °F 33% 29.81 in 10.0 mi South 29.9 mph 36.8 mph N/A   Clear
2:55 PM 87.8 °F 86.1 °F 55.4 °F 33% 29.81 in 10.0 mi South 25.3 mph 38.0 mph N/A   Clear
3:15 PM 86.0 °F 84.5 °F 55.4 °F 35% 29.81 in 10.0 mi South 27.6 mph 32.2 mph N/A   Clear
3:35 PM 86.0 °F 84.5 °F 55.4 °F 35% 29.80 in 10.0 mi South 29.9 mph 36.8 mph N/A   Clear
3:55 PM 84.2 °F 83.0 °F 55.4 °F 37% 29.80 in 10.0 mi SSE 28.8 mph 36.8 mph N/A   Clear
4:15 PM 84.2 °F 83.0 °F 55.4 °F 37% 29.81 in 10.0 mi South 17.3 mph 31.1 mph N/A   Clear
4:35 PM 84.2 °F 83.0 °F 55.4 °F 37% 29.80 in 10.0 mi SSE 27.6 mph 35.7 mph N/A   Clear
4:55 PM 84.2 °F 83.5 °F 57.2 °F 40% 29.81 in 10.0 mi SSE 24.2 mph 31.1 mph N/A   Clear
5:15 PM 84.2 °F 83.5 °F 57.2 °F 40% 29.81 in 10.0 mi SSE 29.9 mph 34.5 mph N/A   Clear
5:35 PM 84.2 °F 83.5 °F 57.2 °F 40% 29.81 in 10.0 mi SSE 26.5 mph 34.5 mph N/A   Clear
5:55 PM 82.4 °F 82.0 °F 57.2 °F 42% 29.82 in 10.0 mi SSE 21.9 mph 27.6 mph N/A   Partly Cloudy
6:15 PM 82.4 °F 82.0 °F 57.2 °F 42% 29.82 in 10.0 mi SSE 18.4 mph 24.2 mph N/A   Partly Cloudy
6:35 PM 82.4 °F 82.0 °F 57.2 °F 42% 29.82 in 10.0 mi SSE 17.3 mph 25.3 mph N/A   Scattered Clouds
6:55 PM 80.6 °F 80.8 °F 57.2 °F 45% 29.81 in 10.0 mi SSE 18.4 mph 23.0 mph N/A   Scattered Clouds
7:15 PM 80.6 °F 80.8 °F 57.2 °F 45% 29.82 in 10.0 mi SSE 13.8 mph - N/A   Partly Cloudy
7:35 PM 78.8 °F - 57.2 °F 47% 29.82 in 10.0 mi SSE 13.8 mph - N/A   Clear
7:55 PM 78.8 °F - 55.4 °F 44% 29.81 in 10.0 mi SSE 12.7 mph - N/A   Clear
8:15 PM 77.0 °F - 55.4 °F 47% 29.82 in 10.0 mi SSE 12.7 mph - N/A   Clear
8:35 PM 77.0 °F - 55.4 °F 47% 29.83 in 10.0 mi SSE 12.7 mph 20.7 mph N/A   Clear
8:55 PM 75.2 °F - 55.4 °F 50% 29.83 in 10.0 mi SSE 15.0 mph 21.9 mph N/A   Clear
9:15 PM 75.2 °F - 55.4 °F 50% 29.84 in 10.0 mi SSE 13.8 mph - N/A   Clear
9:35 PM 75.2 °F - 55.4 °F 50% 29.84 in 10.0 mi SSE 16.1 mph 19.6 mph N/A   Clear
9:55 PM 73.4 °F - 57.2 °F 57% 29.84 in 10.0 mi SSE 16.1 mph 20.7 mph N/A   Clear
10:15 PM 73.4 °F - 57.2 °F 57% 29.83 in 10.0 mi SSE 17.3 mph - N/A   Clear
10:35 PM 73.4 °F - 57.2 °F 57% 29.83 in 10.0 mi SSE 17.3 mph 23.0 mph N/A   Clear
10:55 PM 73.4 °F - 57.2 °F 57% 29.83 in 10.0 mi SSE 16.1 mph 21.9 mph N/A   Clear
11:15 PM 71.6 °F - 57.2 °F 60% 29.82 in 10.0 mi SSE 17.3 mph 23.0 mph N/A   Clear
11:35 PM 71.6 °F - 57.2 °F 60% 29.81 in 10.0 mi SSE 16.1 mph 21.9 mph N/A   Clear
11:55 PM 71.6 °F - 57.2 °F 60% 29.80 in 10.0 mi SSE 17.3 mph 23.0 mph N/A   Clear